[ hide orbit diagram ]
For accurate long-term ephemerides, please instead use our Horizons system.This orbit viewer was implemented using two-body methods, and hence should not be used for determining accurate long-term trajectories (over several years or decades) or planetary encounter circumstances.
Orbital Elements at Epoch 2459000.5 (2020-May-31.0) TDB
Reference: JPL 5 (heliocentric ecliptic J2000)
Element | Value | Uncertainty (1-sigma) | Units |
e | .1278170987009725 | 9.9678e-08 | |
a | 2.98676760157053 | 6.3144e-08 | au |
q | 2.605007632243722 | 3.403e-07 | au |
i | 2.142775944750763 | 7.3663e-06 | deg |
node | 334.75483693229 | 0.00023293 | deg |
peri | 4.846978874113315 | 0.00023566 | deg |
M | 280.3996532316495 | 3.4353e-05 | deg |
tp | 2459417.381894136627 (2021-Jul-21.88189414) | 0.00018102 | TDB |
period | 1885.387287645048 5.16 | 5.9789e-05 1.637e-07 | d yr |
n | .1909422018272224 | 6.0551e-09 | deg/d |
Q | 3.368527570897337 | 7.1215e-08 | au |
|
| | Orbit Determination Parameters
Additional Information
|
[ show covariance matrix ]
Physical Parameter Table
Parameter |
Symbol |
Value |
Units |
Sigma |
Reference |
Notes |
absolute magnitude |
H |
17.04 |
|
n/a |
E2021B25 |
|
|
351924 (2006 SK404) Discovered 2006-Sep-30 by Mt. Lemmon Survey at Mount Lemmon |
Reference: 20130127/Numbers.arc | Last Updated: 2013-01-31 |
|
|